{"data":{"norad_id":67527,"intl_designator":"2026-013F","name":"HULIANWANG DIGUI-151","alt_names":[],"object_type":"PAYLOAD","status":"ACTIVE","operator":null,"country":"PRC","launch_date":"2026-01-19","launch_site_code":"WSC","launch_vehicle":null,"mission":null,"orbit_class":"UNKNOWN","rcs_meters":null,"size_class":null,"mass_kg":null,"dimensions":null,"purposes":[],"wikipedia_slug":null,"has_3d_model":false,"image_url":null,"decayed_at":null,"tle_current":{"epoch":"2026-09-20T12:40:30.351648Z","epoch_age_seconds":94291,"freshness":"FRESH","line1":"1 67527U 26013F   26263.52812907 -.00000104  00000+0  42206-4 0  9995","line2":"2 67527  50.0114  13.7053 0000724 107.6903 252.4049 13.29330167 32734","mean_motion":13.29330167,"eccentricity":7.24e-5,"inclination_deg":50.0114,"raan_deg":13.7053,"arg_perigee_deg":107.6903,"mean_anomaly_deg":252.4049,"bstar":4.2206e-5,"rev_number":3273,"period_min":108.32523294418,"perigee_km":1148.7458554119,"apogee_km":1149.8358269633,"semimajor_km":7527.4278411876,"source":"CELESTRAK","updated_at":"2026-09-21T09:00:16.681174Z"}}}